Date,TemperatureHighF,TemperatureAvgF,TemperatureLowF,DewpointHighF,DewpointAvgF,DewpointLowF,HumidityHigh,HumidityAvg,HumidityLow,PressureMaxIn,PressureMinIn,WindSpeedMaxMPH,WindSpeedAvgMPH,GustSpeedMaxMPH,PrecipitationSumIn
2013-2-1,66.6,53.5,41.9,45.5,37.6,27.5,92,57,24,30.34,30.21,12,1,13,0.00
2013-2-2,69.7,54.9,41.1,52.6,46.6,39.3,95,77,47,30.30,30.14,11,1,12,0.00
2013-2-3,72.8,57.4,46.4,50.1,46.4,39.0,97,70,40,30.20,30.06,9,0,9,0.00
2013-2-4,71.0,54.8,40.8,50.6,45.3,39.2,97,74,43,30.15,30.03,12,0,13,0.00
2013-2-5,78.1,58.2,41.9,55.7,48.9,40.3,97,75,36,30.11,30.00,8,0,8,0.00
2013-2-6,78.3,66.2,53.3,66.2,60.3,52.2,98,82,56,30.12,30.03,10,0,10,0.00
2013-2-7,81.3,69.9,58.5,67.6,63.0,56.9,98,80,54,30.09,29.90,11,1,11,0.00
2013-2-8,81.7,68.4,60.0,64.5,61.3,54.6,97,80,41,30.08,29.87,11,1,12,0.00
2013-2-9,72.2,64.6,55.4,60.9,58.5,54.3,99,82,64,30.21,30.06,14,3,15,0.01
2013-2-10,76.6,68.9,63.1,60.5,58.6,56.3,87,70,55,30.28,30.18,14,2,15,0.00
2013-2-11,82.2,70.4,59.1,65.3,62.2,57.7,98,77,47,30.23,30.09,8,1,10,0.00
2013-2-12,84.8,72.6,59.5,68.8,64.8,58.4,98,79,49,30.12,29.94,11,1,13,0.00
2013-2-13,87.2,74.7,64.7,71.2,66.6,59.0,97,78,47,29.98,29.83,17,2,17,0.00
2013-2-14,72.0,63.4,59.9,67.0,61.4,59.0,98,93,78,30.06,29.94,11,1,13,1.10
2013-2-15,70.3,61.6,56.6,61.1,58.8,56.0,98,91,70,30.07,29.96,7,1,7,0.02
2013-2-16,70.2,59.5,48.8,58.5,47.7,32.4,97,69,35,30.09,29.89,14,1,14,0.00
2013-2-17,54.1,45.0,34.8,38.8,24.2,14.4,86,47,23,30.35,30.09,17,3,19,0.00
2013-2-18,66.7,51.3,34.8,51.6,41.3,28.9,93,71,48,30.36,30.23,15,1,16,0.00
2013-2-19,79.5,63.3,47.5,59.9,53.1,45.5,97,73,42,30.23,30.06,13,1,14,0.00
2013-2-20,72.5,63.1,52.8,62.9,58.2,51.4,98,85,67,30.14,30.03,14,2,14,0.00
2013-2-21,80.4,69.3,59.0,67.4,63.6,58.0,99,84,58,30.11,30.02,12,1,12,0.00
2013-2-22,81.3,71.4,60.1,72.1,67.7,59.5,99,89,69,30.11,30.01,11,1,11,0.00
2013-2-23,87.7,74.9,64.0,71.7,67.0,62.5,99,79,44,30.05,29.88,12,1,16,0.00
2013-2-24,85.0,72.0,67.2,71.2,67.7,66.3,98,87,55,29.98,29.89,14,2,14,0.00
2013-2-25,86.7,75.1,66.8,73.5,68.2,62.8,99,81,47,29.93,29.79,10,1,12,0.00
2013-2-26,84.4,75.4,66.0,72.8,69.4,63.5,94,83,57,29.87,29.75,20,2,20,0.01
2013-2-27,76.8,66.8,57.9,63.6,59.6,52.0,98,79,52,29.97,29.86,9,1,9,0.00
2013-2-28,76.0,62.6,50.3,52.8,48.8,41.2,94,64,33,30.01,29.87,10,1,11,0.00